DLH3TX EDDM-EDDB

Flight info

Callsign DLH3TX
Flight time 0h 49m
Altitude 29000
Route AKINI1S AKINI Y104 MAMOR L132 RUDNO T203 TIVDA DCT ETVIS DCT NAVEK DCT GAVLI T203 ATGUP ATGUP1R
Aircraft A320/M-SDE3FGHIRWY/LB1

Departure

Time 2026-05-05 17:57
Airport Munich Airport (EDDM)

Arrival

Time 2026-05-05 18:46
Airport Berlin Brandenburg Airport (EDDB)
Time Latitude Longitude Altitude Speed Heading
2026-05-05 17:11 48.35109 11.79339 1467 ft 0 kts 263°
2026-05-05 17:37 48.35110 11.79349 1467 ft 4 kts 264°
2026-05-05 17:37 48.35111 11.79376 1465 ft 4 kts 265°
2026-05-05 17:37 48.35113 11.79430 1458 ft 4 kts 270°
2026-05-05 17:37 48.35112 11.79470 1459 ft 4 kts 279°
2026-05-05 17:38 48.35105 11.79506 1464 ft 4 kts 314°
2026-05-05 17:38 48.35093 11.79517 1458 ft 1 kts 353°
2026-05-05 17:38 48.35091 11.79518 1458 ft 0 kts 353°
2026-05-05 17:43 48.35112 11.79520 1464 ft 6 kts 14°
2026-05-05 17:43 48.35157 11.79559 1459 ft 9 kts 36°
2026-05-05 17:43 48.35229 11.79560 1465 ft 12 kts 354°
2026-05-05 17:44 48.35316 11.79548 1460 ft 13 kts 354°
2026-05-05 17:44 48.35418 11.79529 1458 ft 17 kts 353°
2026-05-05 17:44 48.35543 11.79507 1464 ft 19 kts 354°
2026-05-05 17:44 48.35677 11.79482 1460 ft 19 kts 353°
2026-05-05 17:45 48.35787 11.79461 1463 ft 13 kts 353°
2026-05-05 17:45 48.35840 11.79454 1462 ft 2 kts 357°
2026-05-05 17:45 48.35856 11.79455 1464 ft 2 kts
2026-05-05 17:45 48.35869 11.79458 1464 ft 2 kts 12°
2026-05-05 17:46 48.35873 11.79460 1463 ft 0 kts 13°
2026-05-05 17:46 48.35877 11.79461 1465 ft 3 kts 15°
2026-05-05 17:46 48.35903 11.79480 1464 ft 6 kts 30°
2026-05-05 17:46 48.35926 11.79500 1462 ft 0 kts 21°
2026-05-05 17:48 48.35940 11.79505 1461 ft 7 kts
2026-05-05 17:48 48.36009 11.79496 1462 ft 12 kts 352°
2026-05-05 17:49 48.36096 11.79481 1468 ft 13 kts 357°
2026-05-05 17:49 48.36193 11.79484 1468 ft 15 kts 27°
2026-05-05 17:49 48.36225 11.79629 1466 ft 16 kts 84°
2026-05-05 17:49 48.36238 11.79793 1459 ft 16 kts 81°
2026-05-05 17:50 48.36253 11.79962 1465 ft 18 kts 84°
2026-05-05 17:50 48.36267 11.80179 1464 ft 22 kts 84°
2026-05-05 17:50 48.36287 11.80420 1468 ft 24 kts 83°
2026-05-05 17:50 48.36307 11.80676 1464 ft 26 kts 83°
2026-05-05 17:51 48.36327 11.80952 1465 ft 27 kts 83°
2026-05-05 17:51 48.36351 11.81244 1464 ft 29 kts 84°
2026-05-05 17:51 48.36374 11.81550 1465 ft 30 kts 83°
2026-05-05 17:51 48.36396 11.81836 1466 ft 19 kts 85°
2026-05-05 17:52 48.36399 11.81999 1466 ft 10 kts 67°
2026-05-05 17:52 48.36434 11.82011 1466 ft 1 kts 355°
2026-05-05 17:54 48.36444 11.82010 1458 ft 4 kts 355°
2026-05-05 17:54 48.36483 11.82004 1459 ft 8 kts 354°
2026-05-05 17:54 48.36540 11.81994 1459 ft 8 kts 353°
2026-05-05 17:54 48.36549 11.81992 1462 ft 0 kts 352°
2026-05-05 17:55 48.36559 11.81990 1461 ft 8 kts 352°
2026-05-05 17:55 48.36645 11.81969 1461 ft 12 kts 339°
2026-05-05 17:56 48.36671 11.81878 1465 ft 0 kts 265°
2026-05-05 17:56 48.36665 11.81791 1460 ft 37 kts 263°
2026-05-05 17:56 48.36601 11.80927 1460 ft 126 kts 263°
2026-05-05 17:57 48.36476 11.79283 1664 ft 177 kts 263°
2026-05-05 17:57 48.36327 11.77419 2630 ft 180 kts 266°
2026-05-05 17:57 48.36184 11.75557 3345 ft 186 kts 266°
2026-05-05 17:57 48.36030 11.73506 3760 ft 210 kts 266°
2026-05-05 17:58 48.35858 11.71234 4421 ft 222 kts 265°
2026-05-05 17:58 48.35906 11.68899 5227 ft 229 kts 285°
2026-05-05 17:58 48.36676 11.66793 6070 ft 236 kts 311°
2026-05-05 17:58 48.38057 11.65410 6614 ft 249 kts 339°
2026-05-05 17:59 48.39806 11.64812 6772 ft 271 kts 346°
2026-05-05 17:59 48.41698 11.64259 6807 ft 281 kts 347°
2026-05-05 17:59 48.43633 11.63712 6811 ft 283 kts 349°
2026-05-05 17:59 48.45608 11.63691 6869 ft 290 kts
2026-05-05 18:00 48.47561 11.64592 7711 ft 296 kts 24°
2026-05-05 18:00 48.49291 11.66288 8694 ft 300 kts 41°
2026-05-05 18:00 48.50673 11.68702 9523 ft 308 kts 53°
2026-05-05 18:00 48.52193 11.71018 10161 ft 321 kts 34°
2026-05-05 18:01 48.54108 11.72971 10469 ft 344 kts 32°
2026-05-05 18:01 48.56162 11.74966 11039 ft 356 kts 31°
2026-05-05 18:01 48.58261 11.76988 11808 ft 361 kts 32°
2026-05-05 18:01 48.60385 11.79054 12611 ft 365 kts 32°
2026-05-05 18:02 48.62520 11.81162 13404 ft 369 kts 32°
2026-05-05 18:02 48.64673 11.83317 14108 ft 373 kts 33°
2026-05-05 18:02 48.66843 11.85505 14805 ft 376 kts 33°
2026-05-05 18:02 48.69029 11.87720 15495 ft 380 kts 33°
2026-05-05 18:03 48.71205 11.89932 16171 ft 384 kts 34°
2026-05-05 18:03 48.73437 11.92202 16873 ft 387 kts 34°
2026-05-05 18:03 48.75680 11.94484 17682 ft 392 kts 34°
2026-05-05 18:03 48.77956 11.96801 18538 ft 396 kts 34°
2026-05-05 18:04 48.80267 11.99154 19301 ft 401 kts 34°
2026-05-05 18:04 48.82601 12.01530 20041 ft 407 kts 34°
2026-05-05 18:04 48.84964 12.03938 20737 ft 412 kts 34°
2026-05-05 18:04 48.87354 12.06378 21403 ft 416 kts 35°
2026-05-05 18:05 48.89772 12.08848 22050 ft 420 kts 35°
2026-05-05 18:05 48.92212 12.11343 22664 ft 425 kts 35°
2026-05-05 18:05 48.94679 12.13870 23247 ft 429 kts 35°
2026-05-05 18:05 48.97137 12.16390 23707 ft 433 kts 35°
2026-05-05 18:06 48.99678 12.18999 24164 ft 437 kts 35°
2026-05-05 18:06 49.01355 12.20722 24453 ft 439 kts 35°
2026-05-05 18:06 49.04723 12.24188 25022 ft 443 kts 36°
2026-05-05 18:06 49.07281 12.26826 25431 ft 445 kts 36°
2026-05-05 18:07 49.09849 12.29480 25831 ft 448 kts 36°
2026-05-05 18:07 49.12440 12.32157 26265 ft 450 kts 36°
2026-05-05 18:07 49.15038 12.34843 26643 ft 452 kts 36°
2026-05-05 18:07 49.17650 12.37543 27040 ft 455 kts 36°
2026-05-05 18:08 49.20276 12.40262 27425 ft 458 kts 36°
2026-05-05 18:08 49.22922 12.43008 27785 ft 460 kts 36°
2026-05-05 18:08 49.25584 12.45774 28170 ft 463 kts 36°
2026-05-05 18:08 49.28253 12.48559 28551 ft 466 kts 36°
2026-05-05 18:09 49.30943 12.51373 28731 ft 473 kts 36°
2026-05-05 18:09 49.36327 12.57102 28746 ft 456 kts 37°
2026-05-05 18:10 49.41318 12.62845 28754 ft 443 kts 39°
2026-05-05 18:10 49.46536 12.67827 28752 ft 443 kts 26°
2026-05-05 18:11 49.52088 12.71946 28745 ft 443 kts 26°
2026-05-05 18:11 49.57651 12.76018 28756 ft 442 kts 26°
2026-05-05 18:12 49.63200 12.80101 28746 ft 442 kts 24°
2026-05-05 18:12 49.69065 12.82596 28746 ft 441 kts
2026-05-05 18:13 49.75135 12.83971 28739 ft 441 kts
2026-05-05 18:13 49.81250 12.85381 28745 ft 442 kts
2026-05-05 18:14 49.87295 12.86786 28751 ft 442 kts
2026-05-05 18:14 49.93379 12.88206 28755 ft 441 kts
2026-05-05 18:15 49.99453 12.89615 28761 ft 441 kts
2026-05-05 18:15 50.05533 12.91018 28768 ft 441 kts
2026-05-05 18:16 50.11612 12.92440 28776 ft 441 kts
2026-05-05 18:16 50.17691 12.93869 28778 ft 441 kts
2026-05-05 18:17 50.23774 12.95290 28776 ft 442 kts
2026-05-05 18:17 50.29732 12.97404 28765 ft 444 kts 21°
2026-05-05 18:18 50.35291 13.01644 28756 ft 444 kts 27°
2026-05-05 18:18 50.40813 13.06033 28742 ft 444 kts 26°
2026-05-05 18:19 50.46333 13.10415 28746 ft 444 kts 26°
2026-05-05 18:19 50.51854 13.14801 28741 ft 445 kts 26°
2026-05-05 18:20 50.57345 13.19197 28747 ft 445 kts 27°
2026-05-05 18:20 50.62850 13.23640 28759 ft 444 kts 26°
2026-05-05 18:21 50.68361 13.28079 28771 ft 444 kts 26°
2026-05-05 18:21 50.73860 13.32518 28773 ft 444 kts 27°
2026-05-05 18:22 50.79345 13.36974 28775 ft 443 kts 27°
2026-05-05 18:22 50.84828 13.41434 28787 ft 443 kts 26°
2026-05-05 18:23 50.90306 13.45892 28784 ft 443 kts 26°
2026-05-05 18:23 50.96064 13.49203 28603 ft 440 kts
2026-05-05 18:23 50.99073 13.50030 28332 ft 438 kts
2026-05-05 18:24 51.02075 13.50837 28056 ft 436 kts
2026-05-05 18:24 51.05046 13.51632 27583 ft 431 kts
2026-05-05 18:24 51.07943 13.52410 27069 ft 426 kts
2026-05-05 18:24 51.10856 13.53195 26557 ft 422 kts
2026-05-05 18:25 51.13732 13.53971 26053 ft 418 kts
2026-05-05 18:25 51.14700 13.54231 25890 ft 416 kts
2026-05-05 18:25 51.19416 13.55507 25098 ft 410 kts
2026-05-05 18:25 51.22217 13.56266 24629 ft 406 kts
2026-05-05 18:26 51.25001 13.57018 24166 ft 403 kts
2026-05-05 18:26 51.27757 13.57764 23706 ft 400 kts
2026-05-05 18:26 51.30495 13.58508 23210 ft 398 kts
2026-05-05 18:26 51.33210 13.59248 22714 ft 394 kts
2026-05-05 18:27 51.35903 13.59984 22248 ft 390 kts
2026-05-05 18:27 51.38571 13.60713 21787 ft 387 kts
2026-05-05 18:27 51.41216 13.61432 21322 ft 384 kts
2026-05-05 18:27 51.43849 13.62152 20856 ft 382 kts
2026-05-05 18:28 51.49068 13.63587 19910 ft 379 kts
2026-05-05 18:28 51.51665 13.64306 19434 ft 378 kts
2026-05-05 18:28 51.54253 13.65023 18940 ft 377 kts
2026-05-05 18:29 51.56841 13.65737 18455 ft 376 kts
2026-05-05 18:29 51.59407 13.66540 17969 ft 376 kts 11°
2026-05-05 18:29 51.61958 13.67453 17474 ft 374 kts 12°
2026-05-05 18:29 51.64445 13.68400 17011 ft 371 kts 12°
2026-05-05 18:30 51.66948 13.69324 16786 ft 365 kts
2026-05-05 18:30 51.69452 13.69263 16697 ft 360 kts 346°
2026-05-05 18:30 51.71744 13.67874 16229 ft 344 kts 327°
2026-05-05 18:30 51.73770 13.65949 15779 ft 331 kts 325°
2026-05-05 18:31 51.75710 13.64056 15336 ft 322 kts 325°
2026-05-05 18:31 51.77614 13.62189 14883 ft 318 kts 325°
2026-05-05 18:31 51.79505 13.60325 14419 ft 318 kts 325°
2026-05-05 18:31 51.81382 13.58469 13821 ft 315 kts 325°
2026-05-05 18:32 51.83238 13.56626 13179 ft 311 kts 325°
2026-05-05 18:32 51.84456 13.55409 12741 ft 309 kts 325°
2026-05-05 18:32 51.86853 13.52995 11886 ft 304 kts 325°
2026-05-05 18:32 51.88636 13.51183 11256 ft 301 kts 325°
2026-05-05 18:33 51.90393 13.49382 10640 ft 297 kts 325°
2026-05-05 18:33 51.92128 13.47587 10058 ft 294 kts 325°
2026-05-05 18:33 51.93844 13.45795 9846 ft 292 kts 325°
2026-05-05 18:33 51.95551 13.44003 9808 ft 292 kts 325°
2026-05-05 18:34 51.96679 13.42816 9811 ft 293 kts 325°
2026-05-05 18:34 51.98387 13.41022 9815 ft 293 kts 325°
2026-05-05 18:34 52.00103 13.39220 9818 ft 293 kts 325°
2026-05-05 18:34 52.01808 13.37432 9821 ft 291 kts 325°
2026-05-05 18:35 52.03510 13.35652 9826 ft 291 kts 324°
2026-05-05 18:35 52.05080 13.33627 9826 ft 285 kts 316°
2026-05-05 18:35 52.06503 13.31517 9413 ft 274 kts 315°
2026-05-05 18:35 52.07892 13.29420 8771 ft 272 kts 315°
2026-05-05 18:36 52.09270 13.27329 8129 ft 270 kts 315°
2026-05-05 18:36 52.10633 13.25248 7501 ft 267 kts 316°
2026-05-05 18:36 52.11974 13.23168 6893 ft 265 kts 315°
2026-05-05 18:36 52.13296 13.21082 6276 ft 264 kts 315°
2026-05-05 18:37 52.14600 13.18998 5635 ft 262 kts 315°
2026-05-05 18:37 52.15880 13.16928 5115 ft 256 kts 315°
2026-05-05 18:37 52.17121 13.14899 4619 ft 250 kts 315°
2026-05-05 18:37 52.18333 13.12891 4111 ft 246 kts 315°
2026-05-05 18:38 52.19524 13.10909 3597 ft 243 kts 315°
2026-05-05 18:38 52.20686 13.08961 3123 ft 241 kts 316°
2026-05-05 18:38 52.21802 13.07038 2987 ft 224 kts 315°
2026-05-05 18:38 52.22855 13.05206 3003 ft 218 kts 317°
2026-05-05 18:39 52.24064 13.03779 2993 ft 212 kts 341°
2026-05-05 18:39 52.25483 13.03557 3011 ft 205 kts 17°
2026-05-05 18:39 52.26673 13.04739 3010 ft 204 kts 52°
2026-05-05 18:39 52.27182 13.06858 3010 ft 204 kts 88°
2026-05-05 18:40 52.26975 13.09148 3014 ft 205 kts 103°
2026-05-05 18:40 52.26604 13.11394 2995 ft 204 kts 101°
2026-05-05 18:40 52.26602 13.13616 3015 ft 189 kts 76°
2026-05-05 18:40 52.27043 13.15617 3013 ft 185 kts 69°
2026-05-05 18:41 52.27518 13.17565 3017 ft 184 kts 68°
2026-05-05 18:41 52.27982 13.19479 3007 ft 183 kts 69°
2026-05-05 18:41 52.28421 13.21296 2996 ft 177 kts 68°
2026-05-05 18:41 52.28867 13.23147 3007 ft 174 kts 68°
2026-05-05 18:42 52.29306 13.24970 2924 ft 173 kts 69°
2026-05-05 18:42 52.29744 13.26792 2743 ft 171 kts 69°
2026-05-05 18:42 52.30168 13.28555 2530 ft 167 kts 69°
2026-05-05 18:42 52.30593 13.30328 2323 ft 167 kts 68°
2026-05-05 18:43 52.30994 13.31997 2112 ft 150 kts 68°
2026-05-05 18:43 52.31357 13.33514 1904 ft 138 kts 68°
2026-05-05 18:43 52.31703 13.34956 1728 ft 134 kts 68°
2026-05-05 18:43 52.32042 13.36360 1556 ft 131 kts 68°
2026-05-05 18:44 52.32385 13.37730 1371 ft 132 kts 65°
2026-05-05 18:44 52.32716 13.39072 1213 ft 133 kts 68°
2026-05-05 18:44 52.33049 13.40523 1004 ft 132 kts 68°
2026-05-05 18:44 52.33373 13.41917 848 ft 132 kts 69°
2026-05-05 18:45 52.33701 13.43322 690 ft 133 kts 68°
2026-05-05 18:45 52.34049 13.44733 472 ft 132 kts 67°
2026-05-05 18:45 52.34371 13.46145 293 ft 132 kts 68°
2026-05-05 18:45 52.34700 13.47524 166 ft 122 kts 67°
2026-05-05 18:46 52.34953 13.48575 154 ft 85 kts 69°
2026-05-05 18:46 52.35054 13.48994 154 ft 17 kts 67°
2026-05-05 18:46 52.35135 13.49217 154 ft 26 kts 50°
2026-05-05 18:46 52.35244 13.49378 154 ft 7 kts 39°
2026-05-05 18:47 52.35286 13.49434 154 ft 9 kts 39°
2026-05-05 18:47 52.35343 13.49507 154 ft 12 kts 37°
2026-05-05 18:47 52.35421 13.49608 154 ft 17 kts 42°
2026-05-05 18:47 52.35478 13.49783 154 ft 19 kts 66°
2026-05-05 18:48 52.35526 13.49992 154 ft 21 kts 70°
2026-05-05 18:48 52.35581 13.50219 155 ft 22 kts 69°
2026-05-05 18:48 52.35635 13.50448 155 ft 20 kts 68°
2026-05-05 18:48 52.35669 13.50588 155 ft 0 kts 67°
2026-05-05 18:50 52.35672 13.50599 155 ft 6 kts 67°
2026-05-05 18:50 52.35703 13.50723 155 ft 15 kts 68°
2026-05-05 18:50 52.35764 13.50829 155 ft 9 kts 355°
2026-05-05 18:50 52.35823 13.50787 155 ft 9 kts 338°
2026-05-05 18:51 52.35879 13.50755 155 ft 10 kts 341°
2026-05-05 18:51 52.35963 13.50706 155 ft 14 kts 339°
2026-05-05 18:51 52.36063 13.50642 157 ft 17 kts 339°
2026-05-05 18:51 52.36159 13.50580 155 ft 16 kts 339°
2026-05-05 18:52 52.36257 13.50520 155 ft 16 kts 340°
2026-05-05 18:52 52.36364 13.50453 155 ft 14 kts 339°
2026-05-05 18:52 52.36415 13.50490 155 ft 9 kts 68°
2026-05-05 18:52 52.36428 13.50551 155 ft 0 kts 71°
2026-05-05 18:53 52.36423 13.50557 155 ft 0 kts 134°
2026-05-05 18:53 52.36418 13.50578 155 ft 0 kts 93°
2026-05-05 18:53 52.36420 13.50584 155 ft 0 kts 69°
2026-05-05 18:54 52.36421 13.50586 155 ft 0 kts 70°
2026-05-05 18:54 52.36421 13.50587 155 ft 0 kts 70°
2026-05-05 18:55 52.36417 13.50567 156 ft 0 kts 69°